"Pseudo-MPEC" for P10TNZa

Created 2019 Nov 10 8:07:10 UT using Find_Orb

Click here for an explanation of pseudo-MPECs

 
 Astrometry: 
     P10TNZa  C2019 10 31%[KS^w0/)AoAstrometry%J.aFx.#JuxHeredacted;v#/6o5qtBF51
     P10TNZa  C2019 10 310rR?UNhZxvunCsVwRxy=Npt^`clickDMXoBjGaEuO%MUv#(R#*Y*F51
     P10TNZa  C2019 10 31Ovhherejt;H90D)2+for)a4explanationbi:=?qFquVQ92[CbJ3F51

Station data:
(F51) Pan-STARRS 1, Haleakala  (N20.707235 W156.255910)  US/Hawaii.
   Observers N. Primak, A. Schultz, S. Watters, J. Thiel, T. Goggia. Measurer
   PS1 Science Consortium. 1.8-m Ritchey-Chrétien + CCD.

Orbital elements:  P10TNZa
   Perihelion 2020 Jul 19.797197 +/- 295 TT = 19:07:57 (JD 2459050.297197)
Epoch 2019 Nov  1.0 TT = JDT 2458788.5   Earth MOID: 0.7118   AutoNEOCP
M 253.79601736 +/- 80               (J2000 ecliptic)
n   0.40567272 +/- 0.245            Peri.   75.03281 +/- 70
a   1.80725253 +/- 0.728            Node    84.83003 +/- 37
e   0.1117275 +/- 0.259             Incl.   22.12686 +/- 32
P   2.43/887.40d           H 19.9   G  0.15   U 11.8  SR
q 1.60533262 +/- 0.917    Q 2.00917244 +/- 34.3
From 3 observations 2019 Oct. 31 (49.7 min); mean residual 0".02
Residuals in arcseconds: 
191031 F51  .01-  .01+    191031 F51  .04+  .02-    191031 F51  .03-  .01+    

Ephemerides (geocentric):
Date (UTC) HH   RA              Dec         delta   r     elong  mag " sig PA
---- -- -- --  -------------   -----------  ------ ------ -----  --- ---- ---
2019 11 10 08  03 32 14.249   -10 15 31.06  .94006 1.8713 151.6 21.9  32d   8
2019 11 10 09  03 32 10.327   -10 15 15.93  .93997 1.8712 151.6 21.9  32d   8
2019 11 10 10  03 32 06.403   -10 15 00.76  .93989 1.8712 151.6 21.9  32d   8
2019 11 10 11  03 32 02.478   -10 14 45.53  .93980 1.8711 151.6 21.9  32d   8
2019 11 10 12  03 31 58.551   -10 14 30.25  .93972 1.8711 151.6 21.9  32d   8
2019 11 10 13  03 31 54.623   -10 14 14.93  .93964 1.8710 151.6 21.9  32d   8
2019 11 10 14  03 31 50.693   -10 13 59.55  .93955 1.8710 151.6 21.9  33d   8
2019 11 10 15  03 31 46.762   -10 13 44.12  .93947 1.8709 151.6 21.9  33d   8
2019 11 10 16  03 31 42.830   -10 13 28.65  .93939 1.8709 151.6 21.9  33d   8
2019 11 10 17  03 31 38.896   -10 13 13.12  .93931 1.8708 151.6 21.9  33d   8
2019 11 10 18  03 31 34.961   -10 12 57.54  .93922 1.8707 151.6 21.9  33d   8
2019 11 10 19  03 31 31.024   -10 12 41.91  .93914 1.8707 151.7 21.9  33d   8
2019 11 10 20  03 31 27.086   -10 12 26.23  .93906 1.8706 151.7 21.9  33d   8
2019 11 10 21  03 31 23.146   -10 12 10.50  .93898 1.8706 151.7 21.9  33d   8
2019 11 10 22  03 31 19.206   -10 11 54.73  .93890 1.8705 151.7 21.9  33d   8
2019 11 10 23  03 31 15.263   -10 11 38.90  .93882 1.8705 151.7 21.9  33d   8
2019 11 11 00  03 31 11.320   -10 11 23.02  .93874 1.8704 151.7 21.9  33d   8
2019 11 11 01  03 31 07.375   -10 11 07.08  .93866 1.8704 151.7 21.9  33d   8
2019 11 11 02  03 31 03.429   -10 10 51.10  .93859 1.8703 151.7 21.9  33d   7
2019 11 11 03  03 30 59.481   -10 10 35.07  .93851 1.8703 151.7 21.9  33d   7
2019 11 11 04  03 30 55.532   -10 10 18.99  .93843 1.8702 151.7 21.9  33d   7
2019 11 11 05  03 30 51.582   -10 10 02.86  .93835 1.8701 151.7 21.9  33d   7
2019 11 11 06  03 30 47.631   -10 09 46.67  .93828 1.8701 151.7 21.9  33d   7
2019 11 11 07  03 30 43.678   -10 09 30.44  .93820 1.8700 151.7 21.9  33d   7
2019 11 11 08  03 30 39.724   -10 09 14.16  .93812 1.8700 151.8 21.9  33d   7
2019 11 11 09  03 30 35.769   -10 08 57.82  .93805 1.8699 151.8 21.9  33d   7
2019 11 11 10  03 30 31.813   -10 08 41.44  .93797 1.8699 151.8 21.9  33d   7
2019 11 11 11  03 30 27.855   -10 08 25.00  .93790 1.8698 151.8 21.9  33d   7
2019 11 11 12  03 30 23.896   -10 08 08.51  .93782 1.8698 151.8 21.9  33d   7
2019 11 11 13  03 30 19.936   -10 07 51.98  .93775 1.8697 151.8 21.9  33d   7
2019 11 11 14  03 30 15.974   -10 07 35.39  .93768 1.8697 151.8 21.9  33d   7
2019 11 11 15  03 30 12.012   -10 07 18.75  .93760 1.8696 151.8 21.9  33d   7
2019 11 11 16  03 30 08.048   -10 07 02.06  .93753 1.8695 151.8 21.9  33d   7
2019 11 11 17  03 30 04.083   -10 06 45.33  .93746 1.8695 151.8 21.9  33d   7
2019 11 11 18  03 30 00.117   -10 06 28.54  .93739 1.8694 151.8 21.9  33d   7
2019 11 11 19  03 29 56.149   -10 06 11.70  .93731 1.8694 151.8 21.9  33d   7
2019 11 11 20  03 29 52.181   -10 05 54.80  .93724 1.8693 151.8 21.9  33d   7
2019 11 11 21  03 29 48.211   -10 05 37.86  .93717 1.8693 151.8 21.9  33d   7
2019 11 11 22  03 29 44.241   -10 05 20.87  .93710 1.8692 151.8 21.9  33d   7
2019 11 11 23  03 29 40.269   -10 05 03.83  .93703 1.8692 151.8 21.9  33d   7
2019 11 12 00  03 29 36.296   -10 04 46.73  .93696 1.8691 151.8 21.9  33d   7
2019 11 12 01  03 29 32.322   -10 04 29.59  .93689 1.8690 151.9 21.9  33d   7
2019 11 12 02  03 29 28.346   -10 04 12.40  .93682 1.8690 151.9 21.9  33d   7
2019 11 12 03  03 29 24.370   -10 03 55.15  .93676 1.8689 151.9 21.9  33d   7
2019 11 12 04  03 29 20.393   -10 03 37.85  .93669 1.8689 151.9 21.9  33d   7
2019 11 12 05  03 29 16.414   -10 03 20.51  .93662 1.8688 151.9 21.9  33d   7
2019 11 12 06  03 29 12.435   -10 03 03.11  .93655 1.8688 151.9 21.9  33d   7
2019 11 12 07  03 29 08.454   -10 02 45.66  .93649 1.8687 151.9 21.9  33d   7